TimeEDT,TemperatureF,Dew PointF,Humidity,Sea Level PressureIn,VisibilityMPH,Wind Direction,Wind SpeedMPH,Gust SpeedMPH,PrecipitationIn,Events,Conditions,WindDirDegrees,DateUTC
12:56 AM,60.1,53.1,78,30.32,-9999.0,Calm,Calm,-,N/A,,Clear,0,2013-04-27 04:56:00
1:56 AM,57.9,53.1,84,30.33,-9999.0,Calm,Calm,-,N/A,,Clear,0,2013-04-27 05:56:00
2:56 AM,59.0,54.0,83,30.31,-9999.0,Calm,Calm,-,N/A,,Clear,0,2013-04-27 06:56:00
3:56 AM,57.0,54.0,89,30.31,-9999.0,Calm,Calm,-,N/A,,Clear,0,2013-04-27 07:56:00
4:56 AM,57.9,55.9,93,30.30,-9999.0,Calm,Calm,-,N/A,,Clear,0,2013-04-27 08:56:00
5:56 AM,57.9,54.0,87,30.30,-9999.0,NE,6.9,-,0.01,,Clear,50,2013-04-27 09:56:00
6:56 AM,55.9,53.1,90,30.31,-9999.0,Calm,Calm,-,N/A,,Clear,0,2013-04-27 10:56:00
7:56 AM,60.1,55.9,86,30.34,-9999.0,NNE,4.6,-,N/A,,Clear,30,2013-04-27 11:56:00
8:56 AM,62.1,57.0,84,30.34,-9999.0,NE,6.9,-,N/A,,Mostly Cloudy,50,2013-04-27 12:56:00
9:56 AM,64.0,55.9,75,30.33,-9999.0,ENE,8.1,-,N/A,,Partly Cloudy,60,2013-04-27 13:56:00
10:56 AM,69.1,55.9,63,30.31,-9999.0,ESE,8.1,-,N/A,,Partly Cloudy,110,2013-04-27 14:56:00
11:56 AM,72.0,57.0,59,30.32,10.0,East,4.6,-,N/A,,Mostly Cloudy,100,2013-04-27 15:56:00
12:56 PM,73.0,54.0,51,30.30,10.0,East,8.1,-,N/A,,Mostly Cloudy,90,2013-04-27 16:56:00
1:56 PM,75.0,46.9,37,30.29,10.0,East,10.4,-,N/A,,Mostly Cloudy,90,2013-04-27 17:56:00
2:56 PM,75.0,46.9,37,30.28,10.0,East,10.4,-,N/A,,Mostly Cloudy,80,2013-04-27 18:56:00
3:56 PM,75.9,46.0,35,30.26,10.0,Variable,6.9,-,N/A,,Mostly Cloudy,0,2013-04-27 19:56:00
4:56 PM,73.9,53.1,48,30.25,-9999.0,ESE,11.5,18.4,N/A,,Clear,120,2013-04-27 20:56:00
5:56 PM,72.0,57.0,59,30.25,-9999.0,SE,9.2,-,N/A,,Overcast,140,2013-04-27 21:56:00
6:56 PM,69.1,53.1,57,30.26,-9999.0,ESE,8.1,-,N/A,,Overcast,110,2013-04-27 22:56:00
7:56 PM,68.0,50.0,52,30.26,-9999.0,East,10.4,17.3,N/A,,Overcast,100,2013-04-27 23:56:00
8:56 PM,66.9,51.1,57,30.25,-9999.0,East,9.2,17.3,N/A,,Scattered Clouds,100,2013-04-28 00:56:00
9:56 PM,66.0,54.0,65,30.26,-9999.0,ESE,8.1,-,N/A,,Clear,110,2013-04-28 01:56:00
10:56 PM,66.0,54.0,65,30.25,-9999.0,East,8.1,-,N/A,,Overcast,100,2013-04-28 02:56:00
11:56 PM,64.9,55.0,70,30.23,-9999.0,East,5.8,-,N/A,,Partly Cloudy,100,2013-04-28 03:56:00